Location: McFarlands Corners
(41.4117°N, 81.3382°W)
Time: 13:52:55
(UTC+00:00)

A-11 Canister half - Pass Details

Date: 19 February 2026
Orbit: 1525 x 1683 km, 47.3° (Epoch: 11 March)

Event Time Altitude Azimuth Distance (km) Brightness Sun altitude
Rises 20:30:34 0° 219° (SW) 4,756 12.9 24.4°
Reaches altitude 10° 20:33:45 10° 215° (SW) 3,753 12.8 23.9°
Maximum altitude 20:42:52 55° 140° (SE) 1,804 9.7 22.7°
Drops below altitude 10° 20:51:48 10° 67° (ENE) 3,694 10.5 21.4°
Sets 20:54:54 0° 63° (ENE) 4,677 10.9 20.9°
